Location: Bogis-Bossey
(46.3500°N, 6.1667°E)
Time: 04:29:07
(UTC+00:00)

USA 238 DEB - Visible Passes

Search period start: 27 February 2024 00:00
Search period end: 08 March 2024 00:00
Orbit: 926 x 1286 km, 63.4° (Epoch: 27 January)

Date Brightness Start Highest point End Pass type
(mag) Time Alt. Az. Time Alt. Az. Time Alt. Az.
27 Feb 4.3 03:14:38 40° SE 03:15:43 43° ESE 03:21:58 10° NE visible
27 Feb 3.9 05:02:05 18° WSW 05:06:36 47° NW 05:13:15 10° NE visible
28 Feb 5.1 02:31:34 27° ESE 02:31:34 27° ESE 02:36:39 10° ENE visible
28 Feb 3.6 04:19:01 38° WSW 04:21:34 67° NW 04:28:24 10° NE visible
29 Feb 5.8 01:48:26 15° E 01:48:26 15° E 01:50:47 10° ENE visible
29 Feb 3.4 03:35:52 70° SSW 03:36:41 85° SE 03:43:31 10° NE visible
29 Feb 4.6 05:23:19 12° W 05:28:27 30° NNW 05:34:33 10° NNE visible
01 Mar 4.1 02:52:39 54° E 02:52:39 54° E 02:58:32 10° NE visible
01 Mar 4.2 04:40:06 25° W 04:43:11 40° NW 04:49:40 10° NNE visible
02 Mar 5.1 02:09:23 30° E 02:09:23 30° E 02:13:23 10° NE visible
02 Mar 3.7 03:56:50 47° W 03:58:04 54° NW 04:04:49 10° NE visible
03 Mar 5.8 01:26:03 16° ENE 01:26:03 16° ENE 01:27:54 10° ENE visible
03 Mar 3.5 03:13:30 74° NNW 03:13:30 74° NNW 03:19:57 10° NE visible
03 Mar 4.8 05:00:56 15° WNW 05:05:11 27° NNW 05:11:01 10° NNE visible
04 Mar 4.3 02:30:07 49° NE 02:30:07 49° NE 02:35:02 10° NE visible
04 Mar 4.5 04:17:33 27° WNW 04:19:50 34° NNW 04:26:05 10° NNE visible
05 Mar 5.2 01:46:43 28° ENE 01:46:43 28° ENE 01:49:59 10° NE visible
05 Mar 4.0 03:34:09 44° NW 03:34:37 45° NW 03:41:13 10° NNE visible
05 Mar 5.3 05:22:31 10° WNW 05:27:27 21° NNW 05:32:42 10° NE visible
06 Mar 5.9 01:03:16 16° ENE 01:03:16 16° ENE 01:04:45 10° NE visible
06 Mar 4.0 02:50:42 54° N 02:50:42 54° N 02:56:22 10° NE visible
06 Mar 5.1 04:38:07 15° WNW 04:41:56 24° NNW 04:47:31 10° NNE visible
07 Mar 4.6 02:07:13 41° NE 02:07:13 41° NE 02:11:29 10° NE visible
07 Mar 4.7 03:54:39 26° NW 03:56:30 29° NNW 04:02:31 10° NNE visible
